STARLINK-35046

Last updated on Mon Oct 20 2025 00:02:06 GMT+0000 (Coordinated Universal Time)

1 65701U 25212AB 25292.25002315 -.02050220 00000+0 -56752-1 0 9997 2 65701 53.1598 282.7998 0001202 73.2563 22.5153 15.40135937 5661
UTC large
Height (km)
Speed (km/s)
/
Latitude / Longitude
Inclination (degrees)
Orbital Period (minutes)
Azimuth
Elevation
Range (km)
Doppler Factor

Next 0 passes for location: London (51.5072 / 0.1276)

Sorry there are no passes over London.